When you browse on this site, cookies collect data to enhance your experience and personalize the content and advertising you see.
Visit our Privacy Policy to learn more. By continuing to use the site, you agree to this use of cookies and data.
  • en Suisse
  • Liste des pays
  • À 7 jours
  • Température de l'eau
  • Carte météo
  • Widgets météo
  • user-avatar
    Se connecter

    Météo par heure à Lyon

    Ce jour, 25 Mai, Lundi

    Heure Température Précipitation Vent Pression Humidité
    00:00 +10°C° 0 mm 3 m/s 757 mmHg 89%
    01:00 +10°C° 0 mm 2 m/s 757 mmHg 91%
    02:00 +10°C° 0 mm 2 m/s 757 mmHg 92%
    03:00 +9°C° 0 mm 2 m/s 757 mmHg 93%
    04:00 +10°C° 0 mm 2 m/s 756 mmHg 91%
    05:00 +12°C° 0 mm 2 m/s 756 mmHg 89%
    06:00 +13°C° 0 mm 2 m/s 757 mmHg 86%
    07:00 +14°C° 0 mm 2 m/s 756 mmHg 79%
    08:00 +16°C° 0 mm 2 m/s 756 mmHg 72%
    09:00 +18°C° 0 mm 3 m/s 756 mmHg 65%
    10:00 +19°C° 0 mm 3 m/s 756 mmHg 61%
    11:00 +21°C° 0 mm 3 m/s 755 mmHg 58%
    12:00 +22°C° 0 mm 4 m/s 755 mmHg 55%
    13:00 +22°C° 0 mm 4 m/s 755 mmHg 56%
    14:00 +23°C° 0 mm 5 m/s 754 mmHg 57%
    15:00 +23°C° 0 mm 5 m/s 754 mmHg 58%
    16:00 +22°C° 0 mm 5 m/s 754 mmHg 62%
    17:00 +21°C° 0 mm 5 m/s 754 mmHg 67%
    18:00 +20°C° 0 mm 5 m/s 754 mmHg 72%
    19:00 +19°C° 0 mm 4 m/s 755 mmHg 74%
    20:00 +17°C° 0 mm 4 m/s 755 mmHg 76%
    21:00 +16°C° 0 mm 3 m/s 755 mmHg 79%
    22:00 +14°C° 0 mm 3 m/s 755 mmHg 81%
    23:00 +13°C° 0 mm 3 m/s 755 mmHg 83%

    Demain, 26 Mai, Mardi

    Heure Température Précipitation Vent Pression Humidité
    00:00 +13°C° 0 mm 2 m/s 755 mmHg 85%
    01:00 +13°C° 0 mm 2 m/s 755 mmHg 87%
    02:00 +12°C° 0 mm 2 m/s 755 mmHg 89%
    03:00 +12°C° 0 mm 2 m/s 755 mmHg 91%
    04:00 +12°C° 0 mm 2 m/s 755 mmHg 89%
    05:00 +13°C° 0 mm 2 m/s 755 mmHg 86%
    06:00 +14°C° 0 mm 2 m/s 755 mmHg 84%
    07:00 +14°C° 0 mm 3 m/s 755 mmHg 77%
    08:00 +17°C° 0 mm 3 m/s 755 mmHg 70%
    09:00 +19°C° 0 mm 4 m/s 755 mmHg 62%
    10:00 +20°C° 0 mm 4 m/s 755 mmHg 58%
    11:00 +22°C° 0 mm 4 m/s 755 mmHg 55%
    12:00 +23°C° 0 mm 5 m/s 754 mmHg 51%
    13:00 +23°C° 0 mm 5 m/s 754 mmHg 52%
    14:00 +23°C° 0 mm 6 m/s 754 mmHg 52%
    15:00 +23°C° 0 mm 6 m/s 754 mmHg 53%
    16:00 +22°C° 0 mm 5 m/s 754 mmHg 58%
    17:00 +21°C° 0 mm 5 m/s 754 mmHg 63%
    18:00 +20°C° 0 mm 4 m/s 754 mmHg 68%
    19:00 +18°C° 0 mm 4 m/s 754 mmHg 73%
    20:00 +17°C° 0 mm 3 m/s 755 mmHg 78%
    21:00 +14°C° 0 mm 3 m/s 755 mmHg 82%
    22:00 +13°C° 0 mm 3 m/s 755 mmHg 85%
    23:00 +13°C° 0 mm 2 m/s 755 mmHg 87%

    Après-demain, 27 Mai, Mercredi

    Heure Température Précipitation Vent Pression Humidité
    00:00 +13°C° 0 mm 2 m/s 755 mmHg 89%
    01:00 +12°C° 0 mm 2 m/s 755 mmHg 90%
    02:00 +11°C° 0 mm 1 m/s 755 mmHg 91%
    03:00 +11°C° 0 mm 1 m/s 755 mmHg 91%
    04:00 +12°C° 0 mm 1 m/s 755 mmHg 89%
    05:00 +12°C° 0 mm 1 m/s 755 mmHg 86%
    06:00 +13°C° 0 mm 1 m/s 755 mmHg 84%
    07:00 +15°C° 0 mm 1 m/s 755 mmHg 77%
    08:00 +18°C° 0 mm 1 m/s 755 mmHg 70%
    09:00 +19°C° 0 mm 1 m/s 755 mmHg 63%
    10:00 +21°C° 0 mm 1 m/s 755 mmHg 60%
    11:00 +22°C° 0 mm 1 m/s 755 mmHg 56%
    12:00 +24°C° 0 mm 1 m/s 755 mmHg 52%
    13:00 +24°C° 0 mm 1 m/s 755 mmHg 51%
    14:00 +24°C° 0 mm 1 m/s 755 mmHg 51%
    15:00 +25°C° 0 mm 1 m/s 755 mmHg 50%
    16:00 +24°C° 0 mm 2 m/s 755 mmHg 56%
    17:00 +23°C° 0 mm 2 m/s 755 mmHg 62%
    18:00 +21°C° 0 mm 2 m/s 755 mmHg 68%
    19:00 +19°C° 0 mm 2 m/s 755 mmHg 72%
    20:00 +18°C° 0 mm 2 m/s 755 mmHg 76%
    21:00 +16°C° 0 mm 1 m/s 755 mmHg 80%
    22:00 +15°C° 0 mm 1 m/s 755 mmHg 82%
    23:00 +14°C° 0 mm 1 m/s 755 mmHg 84%

    28 Mai, Jeudi

    Heure Température Précipitation Vent Pression Humidité
    00:00 +14°C° 0 mm 1 m/s 755 mmHg 86%
    01:00 +13°C° 0 mm 1 m/s 755 mmHg 87%
    02:00 +13°C° 0 mm 1 m/s 754 mmHg 89%
    03:00 +12°C° 0 mm 1 m/s 754 mmHg 90%
    04:00 +13°C° 0 mm 1 m/s 754 mmHg 87%
    05:00 +14°C° 0 mm 1 m/s 754 mmHg 85%
    06:00 +14°C° 0 mm 1 m/s 754 mmHg 82%
    07:00 +16°C° 0 mm 1 m/s 753 mmHg 75%
    08:00 +18°C° 0 mm 2 m/s 753 mmHg 67%
    09:00 +20°C° 0 mm 2 m/s 753 mmHg 60%
    10:00 +21°C° 0 mm 2 m/s 752 mmHg 56%
    11:00 +22°C° 0 mm 3 m/s 752 mmHg 52%
    12:00 +24°C° 0 mm 3 m/s 751 mmHg 48%
    13:00 +25°C° 0 mm 3 m/s 751 mmHg 50%
    14:00 +25°C° 0 mm 3 m/s 751 mmHg 51%
    15:00 +25°C° 0 mm 4 m/s 750 mmHg 52%
    16:00 +24°C° 0 mm 3 m/s 750 mmHg 58%
    17:00 +22°C° 0 mm 3 m/s 750 mmHg 63%
    18:00 +21°C° 0 mm 3 m/s 750 mmHg 69%
    19:00 +20°C° 0 mm 3 m/s 750 mmHg 75%
    20:00 +18°C° 0 mm 3 m/s 750 mmHg 81%
    21:00 +16°C° 0 mm 2 m/s 750 mmHg 87%
    22:00 +16°C° 0 mm 2 m/s 750 mmHg 88%
    23:00 +15°C° 0 mm 2 m/s 750 mmHg 90%

    29 Mai, Vendredi

    Heure Température Précipitation Vent Pression Humidité
    00:00 +14°C° 0 mm 2 m/s 750 mmHg 91%
    01:00 +13°C° 0 mm 1 m/s 750 mmHg 91%
    02:00 +13°C° 0 mm 1 m/s 749 mmHg 92%
    03:00 +12°C° 0 mm 1 m/s 749 mmHg 92%
    04:00 +13°C° 0 mm 1 m/s 749 mmHg 89%
    05:00 +13°C° 0 mm 1 m/s 749 mmHg 86%
    06:00 +14°C° 0 mm 1 m/s 749 mmHg 83%
    07:00 +15°C° 0 mm 2 m/s 749 mmHg 77%
    08:00 +17°C° 0 mm 2 m/s 748 mmHg 72%
    09:00 +18°C° 0 mm 2 m/s 748 mmHg 66%
    10:00 +20°C° 0 mm 2 m/s 748 mmHg 61%
    11:00 +21°C° 0 mm 3 m/s 747 mmHg 56%
    12:00 +22°C° 0 mm 3 m/s 747 mmHg 52%
    13:00 +22°C° 0 mm 4 m/s 746 mmHg 50%
    14:00 +22°C° 0 mm 4 m/s 746 mmHg 48%
    15:00 +22°C° 0 mm 4 m/s 746 mmHg 46%
    16:00 +21°C° 0 mm 4 m/s 746 mmHg 52%
    17:00 +20°C° 0 mm 4 m/s 746 mmHg 58%
    18:00 +19°C° 0 mm 3 m/s 746 mmHg 64%
    19:00 +18°C° 0 mm 3 m/s 746 mmHg 70%
    20:00 +16°C° 0 mm 3 m/s 746 mmHg 76%
    21:00 +13°C° 0 mm 3 m/s 747 mmHg 82%
    22:00 +13°C° 0 mm 2 m/s 747 mmHg 84%
    23:00 +13°C° 0 mm 2 m/s 747 mmHg 86%

    30 Mai, Samedi

    Heure Température Précipitation Vent Pression Humidité
    00:00 +12°C° 0 mm 2 m/s 747 mmHg 88%
    01:00 +10°C° 0 mm 2 m/s 747 mmHg 88%
    02:00 +10°C° 0 mm 2 m/s 747 mmHg 88%
    03:00 +10°C° 0 mm 1 m/s 746 mmHg 88%
    04:00 +11°C° 0 mm 1 m/s 746 mmHg 84%
    05:00 +12°C° 0 mm 2 m/s 746 mmHg 81%
    06:00 +12°C° 0 mm 2 m/s 746 mmHg 77%
    07:00 +14°C° 0 mm 2 m/s 746 mmHg 72%
    08:00 +16°C° 0 mm 2 m/s 746 mmHg 66%
    09:00 +18°C° 0 mm 3 m/s 746 mmHg 60%
    10:00 +19°C° 0 mm 3 m/s 745 mmHg 57%
    11:00 +20°C° 0 mm 4 m/s 745 mmHg 53%
    12:00 +22°C° 0 mm 4 m/s 745 mmHg 49%
    13:00 +22°C° 0 mm 4 m/s 745 mmHg 49%
    14:00 +22°C° 0 mm 4 m/s 745 mmHg 49%
    15:00 +23°C° 0 mm 4 m/s 745 mmHg 49%
    16:00 +22°C° 0 mm 4 m/s 745 mmHg 54%
    17:00 +21°C° 0 mm 3 m/s 745 mmHg 59%
    18:00 +19°C° 0 mm 3 m/s 745 mmHg 64%
    19:00 +18°C° 0 mm 2 m/s 746 mmHg 68%
    20:00 +16°C° 0 mm 2 m/s 746 mmHg 72%
    21:00 +14°C° 0 mm 1 m/s 747 mmHg 76%
    22:00 +13°C° 0 mm 1 m/s 747 mmHg 78%
    23:00 +12°C° 0 mm 1 m/s 747 mmHg 79%
    Voir plus